Time,TemperatureF,DewpointF,PressureIn,WindDirection,WindDirectionDegrees,WindSpeedMPH,WindSpeedGustMPH,Humidity,HourlyPrecipIn,Conditions,Clouds,dailyrainin,SoftwareType,DateUTC
2013-03-18 00:01:00,37.0,34.0,30.12,SW,225,3.0,-999.0,90,-99.99,,,-99.99,,2013-03-18 07:01:00,
2013-03-18 00:12:00,37.0,34.0,30.12,SW,225,3.0,-999.0,90,-99.99,,,-99.99,,2013-03-18 07:12:00,
2013-03-18 00:22:00,37.0,34.0,30.12,SW,229,6.0,-999.0,90,-99.99,,,-99.99,,2013-03-18 07:22:00,
2013-03-18 00:31:00,37.0,34.0,30.12,SSW,204,10.0,-999.0,90,-99.99,,,-99.99,,2013-03-18 07:31:00,
2013-03-18 00:42:00,37.0,34.0,30.12,SSW,204,10.0,-999.0,90,-99.99,,,-99.99,,2013-03-18 07:42:00,
2013-03-18 00:52:00,37.0,34.0,30.12,SSW,203,11.0,-999.0,90,-99.99,,,-99.99,,2013-03-18 07:52:00,
2013-03-18 01:01:00,37.0,34.0,30.12,SSW,203,11.0,-999.0,90,-99.99,,,-99.99,,2013-03-18 08:01:00,
2013-03-18 01:11:00,37.0,34.0,30.12,SSW,203,11.0,-999.0,90,-99.99,,,-99.99,,2013-03-18 08:11:00,
2013-03-18 01:32:00,36.0,34.0,30.10,SW,235,14.0,-999.0,91,-99.99,,,-99.99,,2013-03-18 08:32:00,
2013-03-18 01:43:00,36.0,34.0,30.10,SW,235,14.0,-999.0,91,-99.99,,,-99.99,,2013-03-18 08:43:00,
2013-03-18 01:52:00,37.0,35.0,30.10,WSW,240,15.0,-999.0,91,-99.99,,,-99.99,,2013-03-18 08:52:00,
2013-03-18 02:02:00,37.0,35.0,30.10,SW,234,17.0,-999.0,91,-99.99,,,-99.99,,2013-03-18 09:02:00,
2013-03-18 02:12:00,37.0,35.0,30.10,SW,234,17.0,-999.0,91,-99.99,,,-99.99,,2013-03-18 09:12:00,
2013-03-18 02:22:00,36.0,34.0,30.10,SW,219,16.0,-999.0,92,-99.99,,,-99.99,,2013-03-18 09:22:00,
2013-03-18 02:32:00,36.0,34.0,30.11,South,191,10.0,-999.0,92,-99.99,,,-99.99,,2013-03-18 09:32:00,
2013-03-18 02:42:00,36.0,34.0,30.11,South,191,10.0,-999.0,92,-99.99,,,-99.99,,2013-03-18 09:42:00,
2013-03-18 02:53:00,36.0,34.0,30.10,South,190,6.0,-999.0,92,-99.99,,,-99.99,,2013-03-18 09:53:00,
2013-03-18 03:03:00,37.0,35.0,30.09,South,178,7.0,-999.0,92,-99.99,,,-99.99,,2013-03-18 10:03:00,
2013-03-18 03:12:00,37.0,35.0,30.09,South,178,7.0,-999.0,92,-99.99,,,-99.99,,2013-03-18 10:12:00,
2013-03-18 03:23:00,37.0,35.0,30.07,WSW,239,9.0,-999.0,92,-99.99,,,-99.99,,2013-03-18 10:23:00,
2013-03-18 03:33:00,37.0,35.0,30.07,SSW,208,15.0,-999.0,91,-99.99,,,-99.99,,2013-03-18 10:33:00,
2013-03-18 03:42:00,37.0,35.0,30.07,SSW,208,15.0,-999.0,91,-99.99,,,-99.99,,2013-03-18 10:42:00,
2013-03-18 03:52:00,37.0,35.0,30.06,WSW,247,17.0,-999.0,92,-99.99,,,-99.99,,2013-03-18 10:52:00,
2013-03-18 04:03:00,37.0,35.0,30.05,West,259,18.0,-999.0,92,-99.99,,,-99.99,,2013-03-18 11:03:00,
2013-03-18 04:12:00,37.0,35.0,30.05,West,259,18.0,-999.0,92,-99.99,,,-99.99,,2013-03-18 11:12:00,
2013-03-18 04:22:00,37.0,35.0,30.05,WSW,241,20.0,-999.0,91,-99.99,,,-99.99,,2013-03-18 11:22:00,
2013-03-18 04:31:00,37.0,35.0,30.06,WSW,256,16.0,-999.0,91,-99.99,,,-99.99,,2013-03-18 11:31:00,
2013-03-18 04:42:00,37.0,35.0,30.06,WSW,256,16.0,-999.0,91,-99.99,,,-99.99,,2013-03-18 11:42:00,
2013-03-18 04:52:00,38.0,35.0,30.06,WSW,240,15.0,-999.0,90,-99.99,,,-99.99,,2013-03-18 11:52:00,
2013-03-18 05:02:00,38.0,35.0,30.07,SW,228,17.0,-999.0,90,-99.99,,,-99.99,,2013-03-18 12:02:00,
2013-03-18 05:12:00,38.0,35.0,30.07,SW,228,17.0,-999.0,90,-99.99,,,-99.99,,2013-03-18 12:12:00,
2013-03-18 05:22:00,38.0,35.0,30.08,WSW,237,14.0,-999.0,89,-99.99,,,-99.99,,2013-03-18 12:22:00,
2013-03-18 05:32:00,38.0,35.0,30.08,SW,232,14.0,-999.0,90,-99.99,,,-99.99,,2013-03-18 12:32:00,
2013-03-18 05:42:00,38.0,35.0,30.08,SW,232,14.0,-999.0,90,-99.99,,,-99.99,,2013-03-18 12:42:00,
2013-03-18 05:51:00,38.0,36.0,30.08,SW,222,13.0,-999.0,91,-99.99,,,-99.99,,2013-03-18 12:51:00,
2013-03-18 06:02:00,38.0,36.0,30.08,SW,232,12.0,-999.0,91,-99.99,,,-99.99,,2013-03-18 13:02:00,
2013-03-18 06:12:00,38.0,36.0,30.08,SW,232,12.0,-999.0,91,-99.99,,,-99.99,,2013-03-18 13:12:00,
2013-03-18 06:22:00,39.0,37.0,30.08,SW,226,12.0,-999.0,91,-99.99,,,-99.99,,2013-03-18 13:22:00,
2013-03-18 06:32:00,39.0,37.0,30.08,SSW,204,14.0,-999.0,91,-99.99,,,-99.99,,2013-03-18 13:32:00,
2013-03-18 06:42:00,39.0,37.0,30.08,SSW,204,14.0,-999.0,91,-99.99,,,-99.99,,2013-03-18 13:42:00,
2013-03-18 06:52:00,39.0,37.0,30.08,SW,223,12.0,-999.0,92,-99.99,,,-99.99,,2013-03-18 13:52:00,
2013-03-18 07:02:00,39.0,37.0,30.08,WSW,240,13.0,-999.0,92,-99.99,,,-99.99,,2013-03-18 14:02:00,
2013-03-18 07:12:00,39.0,37.0,30.08,WSW,240,13.0,-999.0,92,-99.99,,,-99.99,,2013-03-18 14:12:00,
2013-03-18 07:22:00,39.0,37.0,30.08,SSW,205,13.0,-999.0,92,-99.99,,,-99.99,,2013-03-18 14:22:00,
2013-03-18 07:32:00,39.0,37.0,30.08,SSW,211,9.0,-999.0,92,-99.99,,,-99.99,,2013-03-18 14:32:00,
2013-03-18 07:42:00,39.0,37.0,30.08,SSW,211,9.0,-999.0,92,-99.99,,,-99.99,,2013-03-18 14:42:00,
2013-03-18 07:51:00,39.0,37.0,30.08,WSW,254,9.0,-999.0,93,-99.99,,,-99.99,,2013-03-18 14:51:00,
2013-03-18 08:02:00,39.0,37.0,30.08,WSW,239,10.0,-999.0,92,-99.99,,,-99.99,,2013-03-18 15:02:00,
2013-03-18 08:12:00,39.0,37.0,30.08,WSW,239,10.0,-999.0,92,-99.99,,,-99.99,,2013-03-18 15:12:00,
2013-03-18 08:22:00,39.0,37.0,30.08,SW,235,13.0,-999.0,92,-99.99,,,-99.99,,2013-03-18 15:22:00,
2013-03-18 08:33:00,40.0,38.0,30.08,WSW,249,12.0,-999.0,91,-99.99,,,-99.99,,2013-03-18 15:33:00,
2013-03-18 08:42:00,40.0,38.0,30.08,WSW,249,12.0,-999.0,91,-99.99,,,-99.99,,2013-03-18 15:42:00,
2013-03-18 08:52:00,40.0,38.0,30.08,WSW,246,8.0,-999.0,91,-99.99,,,-99.99,,2013-03-18 15:52:00,
2013-03-18 09:02:00,40.0,37.0,30.08,SW,221,7.0,-999.0,90,-99.99,,,-99.99,,2013-03-18 16:02:00,
2013-03-18 09:12:00,40.0,37.0,30.08,SW,221,7.0,-999.0,90,-99.99,,,-99.99,,2013-03-18 16:12:00,
2013-03-18 09:22:00,41.0,38.0,30.09,WSW,244,3.0,-999.0,90,-99.99,,,-99.99,,2013-03-18 16:22:00,
2013-03-18 09:32:00,41.0,38.0,30.10,WSW,243,0.0,-999.0,90,-99.99,,,-99.99,,2013-03-18 16:32:00,
2013-03-18 09:42:00,41.0,38.0,30.10,WSW,243,0.0,-999.0,90,-99.99,,,-99.99,,2013-03-18 16:42:00,
2013-03-18 09:52:00,41.0,38.0,30.11,WSW,237,3.0,-999.0,90,-99.99,,,-99.99,,2013-03-18 16:52:00,
2013-03-18 10:02:00,41.0,38.0,30.11,WSW,237,0.0,-999.0,89,-99.99,,,-99.99,,2013-03-18 17:02:00,
2013-03-18 10:12:00,41.0,38.0,30.11,WSW,237,0.0,-999.0,89,-99.99,,,-99.99,,2013-03-18 17:12:00,
2013-03-18 10:22:00,41.0,38.0,30.11,WNW,298,1.0,-999.0,88,-99.99,,,-99.99,,2013-03-18 17:22:00,
2013-03-18 10:32:00,41.0,38.0,30.11,WNW,298,1.0,-999.0,88,-99.99,,,-99.99,,2013-03-18 17:32:00,
2013-03-18 10:42:00,41.0,38.0,30.11,WNW,298,1.0,-999.0,88,-99.99,,,-99.99,,2013-03-18 17:42:00,
2013-03-18 10:52:00,42.0,38.0,30.11,SW,230,1.0,-999.0,85,-99.99,,,-99.99,,2013-03-18 17:52:00,
2013-03-18 11:02:00,44.0,39.0,30.12,SW,231,2.0,-999.0,82,-99.99,,,-99.99,,2013-03-18 18:02:00,
2013-03-18 11:12:00,44.0,39.0,30.12,SW,231,2.0,-999.0,82,-99.99,,,-99.99,,2013-03-18 18:12:00,
2013-03-18 11:22:00,45.0,40.0,30.12,South,187,2.0,-999.0,81,-99.99,,,-99.99,,2013-03-18 18:22:00,
2013-03-18 11:32:00,46.0,40.0,30.12,SE,128,1.0,-999.0,80,-99.99,,,-99.99,,2013-03-18 18:32:00,
2013-03-18 11:42:00,46.0,40.0,30.12,SE,128,1.0,-999.0,80,-99.99,,,-99.99,,2013-03-18 18:42:00,
2013-03-18 11:52:00,47.0,39.0,30.13,South,175,2.0,-999.0,75,-99.99,,,-99.99,,2013-03-18 18:52:00,
2013-03-18 12:02:00,49.0,41.0,30.13,SSE,159,3.0,-999.0,73,-99.99,,,-99.99,,2013-03-18 19:02:00,
2013-03-18 12:12:00,49.0,41.0,30.13,SSE,159,3.0,-999.0,73,-99.99,,,-99.99,,2013-03-18 19:12:00,
2013-03-18 12:22:00,49.0,40.0,30.13,SE,144,2.0,-999.0,71,-99.99,,,-99.99,,2013-03-18 19:22:00,
2013-03-18 12:32:00,49.0,40.0,30.13,ESE,120,1.0,-999.0,70,-99.99,,,-99.99,,2013-03-18 19:32:00,
2013-03-18 12:42:00,49.0,40.0,30.13,ESE,120,1.0,-999.0,70,-99.99,,,-99.99,,2013-03-18 19:42:00,
2013-03-18 12:52:00,48.0,40.0,30.14,NE,49,0.0,-999.0,73,-99.99,,,-99.99,,2013-03-18 19:52:00,
2013-03-18 13:02:00,47.0,39.0,30.14,SE,141,0.0,-999.0,74,-99.99,,,-99.99,,2013-03-18 20:02:00,
2013-03-18 13:12:00,47.0,39.0,30.14,SE,141,0.0,-999.0,74,-99.99,,,-99.99,,2013-03-18 20:12:00,
2013-03-18 13:22:00,48.0,40.0,30.14,SE,138,0.0,-999.0,74,-99.99,,,-99.99,,2013-03-18 20:22:00,
2013-03-18 13:32:00,48.0,40.0,30.14,SE,140,1.0,-999.0,74,-99.99,,,-99.99,,2013-03-18 20:32:00,
2013-03-18 13:42:00,48.0,40.0,30.14,SE,140,1.0,-999.0,74,-99.99,,,-99.99,,2013-03-18 20:42:00,
2013-03-18 13:52:00,50.0,41.0,30.14,East,86,2.0,-999.0,70,-99.99,,,-99.99,,2013-03-18 20:52:00,
2013-03-18 14:02:00,51.0,41.0,30.14,SE,130,2.0,-999.0,68,-99.99,,,-99.99,,2013-03-18 21:02:00,
2013-03-18 14:11:00,51.0,41.0,30.14,SE,130,2.0,-999.0,68,-99.99,,,-99.99,,2013-03-18 21:11:00,
2013-03-18 14:22:00,52.0,41.0,30.14,SSE,157,2.0,-999.0,65,-99.99,,,-99.99,,2013-03-18 21:22:00,
2013-03-18 14:32:00,52.0,38.0,30.14,SE,131,3.0,-999.0,59,-99.99,,,-99.99,,2013-03-18 21:32:00,
2013-03-18 14:42:00,52.0,38.0,30.14,SE,131,3.0,-999.0,59,-99.99,,,-99.99,,2013-03-18 21:42:00,
2013-03-18 14:52:00,52.0,36.0,30.14,SE,128,3.0,-999.0,55,-99.99,,,-99.99,,2013-03-18 21:52:00,
2013-03-18 15:03:00,51.0,37.0,30.14,SW,228,1.0,-999.0,58,-99.99,,,-99.99,,2013-03-18 22:03:00,
2013-03-18 15:12:00,51.0,37.0,30.14,SW,228,1.0,-999.0,58,-99.99,,,-99.99,,2013-03-18 22:12:00,
2013-03-18 15:22:00,51.0,36.0,30.14,SSE,152,1.0,-999.0,57,-99.99,,,-99.99,,2013-03-18 22:22:00,
2013-03-18 15:32:00,50.0,34.0,30.14,SSW,196,1.0,-999.0,53,-99.99,,,-99.99,,2013-03-18 22:32:00,
2013-03-18 15:42:00,50.0,34.0,30.14,SSW,196,1.0,-999.0,53,-99.99,,,-99.99,,2013-03-18 22:42:00,
2013-03-18 15:52:00,50.0,35.0,30.14,SSW,198,0.0,-999.0,57,-99.99,,,-99.99,,2013-03-18 22:52:00,
2013-03-18 16:02:00,50.0,36.0,30.14,SSW,198,0.0,-999.0,59,-99.99,,,-99.99,,2013-03-18 23:02:00,
2013-03-18 16:12:00,50.0,36.0,30.14,SSW,198,0.0,-999.0,59,-99.99,,,-99.99,,2013-03-18 23:12:00,
2013-03-18 16:22:00,50.0,37.0,30.14,South,186,0.0,-999.0,61,-99.99,,,-99.99,,2013-03-18 23:22:00,
2013-03-18 16:32:00,50.0,34.0,30.14,WNW,302,0.0,-999.0,55,-99.99,,,-99.99,,2013-03-18 23:32:00,
2013-03-18 16:42:00,50.0,34.0,30.14,WNW,302,0.0,-999.0,55,-99.99,,,-99.99,,2013-03-18 23:42:00,
2013-03-18 16:52:00,50.0,34.0,30.14,NNW,339,0.0,-999.0,55,-99.99,,,-99.99,,2013-03-18 23:52:00,
2013-03-18 17:02:00,50.0,36.0,30.15,North,356,2.0,-999.0,58,-99.99,,,-99.99,,2013-03-19 00:02:00,
2013-03-18 17:12:00,50.0,36.0,30.15,North,356,2.0,-999.0,58,-99.99,,,-99.99,,2013-03-19 00:12:00,
2013-03-18 17:22:00,49.0,36.0,30.15,NNW,347,2.0,-999.0,61,-99.99,,,-99.99,,2013-03-19 00:22:00,
2013-03-18 17:32:00,49.0,37.0,30.16,NNW,343,1.0,-999.0,62,-99.99,,,-99.99,,2013-03-19 00:32:00,
2013-03-18 17:42:00,49.0,37.0,30.16,NNW,343,1.0,-999.0,62,-99.99,,,-99.99,,2013-03-19 00:42:00,
2013-03-18 17:52:00,48.0,35.0,30.16,NNW,329,0.0,-999.0,60,-99.99,,,-99.99,,2013-03-19 00:52:00,
2013-03-18 18:02:00,48.0,35.0,30.16,SW,232,0.0,-999.0,61,-99.99,,,-99.99,,2013-03-19 01:02:00,
2013-03-18 18:11:00,48.0,35.0,30.16,SW,232,0.0,-999.0,61,-99.99,,,-99.99,,2013-03-19 01:11:00,
2013-03-18 18:22:00,48.0,35.0,30.16,SW,220,0.0,-999.0,61,-99.99,,,-99.99,,2013-03-19 01:22:00,
2013-03-18 18:32:00,47.0,34.0,30.16,SE,145,0.0,-999.0,61,-99.99,,,-99.99,,2013-03-19 01:32:00,
2013-03-18 18:42:00,47.0,34.0,30.16,SE,145,0.0,-999.0,61,-99.99,,,-99.99,,2013-03-19 01:42:00,
2013-03-18 18:52:00,46.0,35.0,30.16,East,84,0.0,-999.0,64,-99.99,,,-99.99,,2013-03-19 01:52:00,
2013-03-18 19:02:00,46.0,35.0,30.17,East,86,0.0,-999.0,66,-99.99,,,-99.99,,2013-03-19 02:02:00,
2013-03-18 19:11:00,46.0,35.0,30.17,East,86,0.0,-999.0,66,-99.99,,,-99.99,,2013-03-19 02:11:00,
2013-03-18 19:22:00,45.0,35.0,30.17,East,98,0.0,-999.0,68,-99.99,,,-99.99,,2013-03-19 02:22:00,
2013-03-18 19:32:00,44.0,35.0,30.17,East,100,0.0,-999.0,70,-99.99,,,-99.99,,2013-03-19 02:32:00,
2013-03-18 19:42:00,44.0,35.0,30.17,East,100,0.0,-999.0,70,-99.99,,,-99.99,,2013-03-19 02:42:00,
2013-03-18 19:52:00,44.0,35.0,30.17,ENE,71,0.0,-999.0,71,-99.99,,,-99.99,,2013-03-19 02:52:00,
2013-03-18 20:02:00,43.0,35.0,30.17,ENE,76,0.0,-999.0,72,-99.99,,,-99.99,,2013-03-19 03:02:00,
2013-03-18 20:11:00,43.0,35.0,30.17,ENE,76,0.0,-999.0,72,-99.99,,,-99.99,,2013-03-19 03:11:00,
2013-03-18 20:21:00,42.0,34.0,30.18,ENE,70,0.0,-999.0,73,-99.99,,,-99.99,,2013-03-19 03:21:00,
2013-03-18 20:32:00,42.0,34.0,30.18,East,90,0.0,-999.0,74,-99.99,,,-99.99,,2013-03-19 03:32:00,
2013-03-18 20:42:00,42.0,34.0,30.18,East,90,0.0,-999.0,74,-99.99,,,-99.99,,2013-03-19 03:42:00,
2013-03-18 20:53:00,42.0,35.0,30.19,NNE,23,0.0,-999.0,76,-99.99,,,-99.99,,2013-03-19 03:53:00,
2013-03-18 21:02:00,41.0,35.0,30.19,NNE,22,0.0,-999.0,79,-99.99,,,-99.99,,2013-03-19 04:02:00,
2013-03-18 21:12:00,41.0,35.0,30.19,NNE,22,0.0,-999.0,79,-99.99,,,-99.99,,2013-03-19 04:12:00,
2013-03-18 21:22:00,40.0,34.0,30.19,NNE,13,1.0,-999.0,80,-99.99,,,-99.99,,2013-03-19 04:22:00,
2013-03-18 21:33:00,40.0,35.0,30.19,NNE,13,0.0,-999.0,81,-99.99,,,-99.99,,2013-03-19 04:33:00,
2013-03-18 21:42:00,40.0,35.0,30.19,NNE,13,0.0,-999.0,81,-99.99,,,-99.99,,2013-03-19 04:42:00,
2013-03-18 21:52:00,39.0,34.0,30.20,NNE,12,0.0,-999.0,83,-99.99,,,-99.99,,2013-03-19 04:52:00,
2013-03-18 22:02:00,39.0,35.0,30.20,North,11,0.0,-999.0,84,-99.99,,,-99.99,,2013-03-19 05:02:00,
2013-03-18 22:11:00,39.0,35.0,30.20,North,11,0.0,-999.0,84,-99.99,,,-99.99,,2013-03-19 05:11:00,
2013-03-18 22:22:00,38.0,34.0,30.20,North,351,0.0,-999.0,86,-99.99,,,-99.99,,2013-03-19 05:22:00,
2013-03-18 22:32:00,38.0,34.0,30.19,North,351,0.0,-999.0,86,-99.99,,,-99.99,,2013-03-19 05:32:00,
2013-03-18 22:42:00,38.0,34.0,30.19,North,351,0.0,-999.0,86,-99.99,,,-99.99,,2013-03-19 05:42:00,
2013-03-18 22:52:00,38.0,34.0,30.19,North,353,1.0,-999.0,86,-99.99,,,-99.99,,2013-03-19 05:52:00,
2013-03-18 23:02:00,38.0,34.0,30.19,North,353,0.0,-999.0,87,-99.99,,,-99.99,,2013-03-19 06:02:00,
2013-03-18 23:12:00,38.0,34.0,30.19,North,353,0.0,-999.0,87,-99.99,,,-99.99,,2013-03-19 06:12:00,
2013-03-18 23:21:00,37.0,34.0,30.20,North,353,0.0,-999.0,88,-99.99,,,-99.99,,2013-03-19 06:21:00,
2013-03-18 23:32:00,37.0,34.0,30.20,North,353,0.0,-999.0,89,-99.99,,,-99.99,,2013-03-19 06:32:00,
2013-03-18 23:42:00,37.0,34.0,30.20,North,353,0.0,-999.0,89,-99.99,,,-99.99,,2013-03-19 06:42:00,
2013-03-18 23:52:00,37.0,34.0,30.20,North,353,0.0,-999.0,90,-99.99,,,-99.99,,2013-03-19 06:52:00,